MDT,Max TemperatureF,Mean TemperatureF,Min TemperatureF,Max Dew PointF,MeanDew PointF,Min DewpointF,Max Humidity, Mean Humidity, Min Humidity, Max Sea Level PressureIn, Mean Sea Level PressureIn, Min Sea Level PressureIn, Max VisibilityMiles, Mean VisibilityMiles, Min VisibilityMiles, Max Wind SpeedMPH, Mean Wind SpeedMPH, Max Gust SpeedMPH,PrecipitationIn, CloudCover, Events, WindDirDegrees
2013-5-1,50,37,24,21,16,11,74,48,21,30.67,30.56,30.40,10,10,10,23,7,28,0.00,3,,271
2013-5-2,67,46,25,19,14,5,63,37,10,30.71,30.51,30.28,10,10,10,22,6,29,0.00,0,,258
2013-5-3,57,49,40,39,31,16,82,53,24,30.33,30.26,30.20,10,10,6,23,8,28,0.08,7,Rain,308
2013-5-4,59,51,42,41,38,35,89,68,47,30.37,30.31,30.25,10,10,6,17,8,23,0.05,7,Rain,309
2013-5-5,68,52,35,36,33,28,89,56,22,30.25,30.13,30.00,10,10,10,12,5,25,0.00,0,,309
2013-5-6,75,56,37,36,31,24,79,48,16,30.06,29.95,29.83,10,10,10,13,4,15,0.00,0,,265
2013-5-7,71,55,39,35,33,31,70,48,26,30.06,29.95,29.87,10,10,10,24,9,30,0.00,1,,347
2013-5-8,77,61,45,35,32,25,60,38,15,30.16,30.08,30.01,10,10,10,13,5,15,0.00,0,,285
2013-5-9,74,60,46,38,35,30,66,44,22,30.16,30.10,30.07,10,10,10,37,4,49,T,2,,256
2013-5-10,69,55,41,37,33,29,76,49,22,30.42,30.31,30.14,10,10,10,29,8,36,0.00,0,,321
2013-5-11,79,60,41,39,34,31,62,41,19,30.36,30.22,30.09,10,10,10,23,3,30,T,1,,250
2013-5-12,87,66,45,40,38,32,66,40,14,30.11,30.02,29.88,10,10,10,23,5,28,0.00,0,,300
2013-5-13,88,71,54,46,41,24,53,32,11,29.98,29.85,29.61,10,10,8,31,9,41,0.00,0,,268
2013-5-14,73,60,47,38,26,18,51,32,13,30.01,29.95,29.88,10,10,10,26,13,36,0.00,0,,275
2013-5-15,72,60,47,36,27,24,47,33,18,30.06,29.96,29.87,10,10,10,26,6,31,T,2,,301
2013-5-16,67,56,45,45,39,34,86,59,32,29.92,29.87,29.81,10,10,9,18,5,25,0.04,5,Rain,275
2013-5-17,56,49,41,46,41,35,93,72,51,29.96,29.92,29.87,10,10,5,12,5,13,0.04,6,Rain,301
2013-5-18,63,55,47,46,44,40,93,70,46,30.04,29.97,29.92,10,10,8,23,6,29,0.05,8,Rain,285
2013-5-19,55,52,48,46,43,39,83,77,71,30.23,30.13,30.02,10,10,7,15,6,20,0.13,8,Rain,280
2013-5-20,65,55,44,46,44,41,86,65,43,30.27,30.20,30.14,10,10,6,17,6,21,0.11,7,Rain,271
2013-5-21,74,57,40,44,38,28,89,55,20,30.15,29.93,29.73,10,8,0,26,9,32,0.00,2,Fog,105
2013-5-22,63,54,44,45,39,32,86,63,39,29.88,29.77,29.71,10,10,4,30,11,38,0.39,4,Rain,88
2013-5-23,54,46,37,40,36,32,89,70,50,30.02,29.95,29.86,10,8,4,25,7,31,0.51,8,Rain,275
2013-5-24,65,53,41,39,32,21,82,51,20,30.02,29.95,29.86,10,10,10,24,9,35,0.01,5,Rain,228
2013-5-25,66,54,42,45,37,32,71,53,34,30.01,29.97,29.91,10,10,4,18,5,24,0.03,3,Rain,273
2013-5-26,69,55,40,44,39,35,92,64,35,30.03,29.95,29.86,10,10,2,38,6,51,0.15,3,Rain,288
2013-5-27,63,53,42,46,42,40,96,72,48,29.96,29.88,29.79,10,10,2,21,4,24,0.04,5,,336
2013-5-28,60,55,49,47,44,40,86,69,51,29.80,29.77,29.75,10,9,5,14,5,16,0.23,8,Rain,300
2013-5-29,66,58,50,47,42,39,80,60,40,29.78,29.72,29.64,10,9,2,22,6,30,0.18,6,Rain,311
2013-5-30,60,54,48,40,35,31,66,52,37,30.01,29.88,29.77,10,10,10,31,18,40,T,4,,274
2013-5-31,54,48,42,42,36,33,83,65,46,30.35,30.18,30.02,10,10,10,21,9,28,T,7,,279